sat.trackr.live / text

‹ back to catalog

STARLINK-31877

NORAD 59675 · 2024-084X

PAYLOAD ACTIVE UNKNOWN

§ Identity

Operator
Country
US
Launch date
2024-05-06
Launch site
AFETR
Launch vehicle
Mass (kg)
RCS (m²)

Purposes: comms

External: N2YO · Heavens-Above · Gunter

§ Orbital elements

Epoch: 2026-09-21T19:05:59.027712Z

Period
94.27 min
Inclination
43.0004°
Eccentricity
0.0000719
Mean motion
15.27578391 rev/d
Perigee alt
482.6 km
Apogee alt
483.5 km
Semi-major
6,861.2 km
B*
5.0040e-5
RAAN
14.4074°
Arg perigee
253.7379°
Mean anomaly
106.3393°
Rev number
13,436

§ Raw data

STARLINK-318771 59675U 24084X   26264.79582208  .00001115  00000+0  50040-4 0  99912 59675  43.0004  14.4074 0000719 253.7379 106.3393 15.27578391134368

JSON: /api/v1/satellites/59675 · /tle

For live sub-satellite position, see the globe view (requires WebGL).

§ Visibility from observer

Set your observer location to see the next 7 days of passes ≥ 10°. The values pass through the URL so the page stays shareable.

No JS? Fill the form by hand. The geolocation button needs JavaScript.